TimePST,TemperatureF,Dew PointF,Humidity,Sea Level PressureIn,VisibilityMPH,Wind Direction,Wind SpeedMPH,Gust SpeedMPH,PrecipitationIn,Events,Conditions,WindDirDegrees,DateUTC
12:05 AM,37.4,37.4,100,30.15,0.5,Calm,Calm,-,N/A,Fog,Fog,0,2012-11-24 08:05:00
12:28 AM,39.2,39.2,100,30.16,1.0,Calm,Calm,-,N/A,,Overcast,0,2012-11-24 08:28:00
12:32 AM,39.2,39.2,100,30.16,2.5,Calm,Calm,-,N/A,,Overcast,0,2012-11-24 08:32:00
12:53 AM,41.0,41.0,100,30.16,3.0,SE,3.5,-,N/A,,Overcast,130,2012-11-24 08:53:00
1:27 AM,39.2,37.4,93,30.17,1.8,Calm,Calm,-,N/A,,Mostly Cloudy,0,2012-11-24 09:27:00
1:37 AM,39.2,39.2,100,30.17,3.0,Calm,Calm,-,N/A,,Mostly Cloudy,0,2012-11-24 09:37:00
1:53 AM,39.0,39.0,100,30.18,5.0,Calm,Calm,-,N/A,,Mostly Cloudy,0,2012-11-24 09:53:00
2:53 AM,37.9,37.9,100,30.19,3.0,ENE,4.6,-,N/A,,Scattered Clouds,60,2012-11-24 10:53:00
3:32 AM,37.4,37.4,100,30.19,2.5,Calm,Calm,-,N/A,,Mostly Cloudy,0,2012-11-24 11:32:00
3:41 AM,39.2,39.2,100,30.19,5.0,Calm,Calm,-,N/A,,Mostly Cloudy,0,2012-11-24 11:41:00
3:53 AM,39.0,37.9,96,30.19,4.0,Calm,Calm,-,N/A,,Overcast,0,2012-11-24 11:53:00
4:20 AM,37.4,37.4,100,30.19,1.5,Calm,Calm,-,N/A,,Overcast,0,2012-11-24 12:20:00
4:31 AM,37.4,37.4,100,30.19,3.0,Calm,Calm,-,N/A,,Overcast,0,2012-11-24 12:31:00
4:45 AM,37.4,37.4,100,30.20,2.0,Calm,Calm,-,N/A,,Mostly Cloudy,0,2012-11-24 12:45:00
4:53 AM,39.0,37.9,96,30.21,3.0,Calm,Calm,-,N/A,,Mostly Cloudy,0,2012-11-24 12:53:00
5:26 AM,37.4,37.4,100,30.21,2.0,East,3.5,-,N/A,,Clear,90,2012-11-24 13:26:00
5:34 AM,37.4,37.4,100,30.21,1.2,East,3.5,-,N/A,,Clear,80,2012-11-24 13:34:00
5:43 AM,37.4,35.6,93,30.21,0.5,Calm,Calm,-,N/A,Fog,Fog,0,2012-11-24 13:43:00
5:53 AM,36.0,36.0,100,30.22,0.5,Calm,Calm,-,N/A,Fog,Fog,0,2012-11-24 13:53:00
6:09 AM,37.4,37.4,100,30.22,1.0,Calm,Calm,-,N/A,,Overcast,0,2012-11-24 14:09:00
6:19 AM,35.6,35.6,100,30.22,0.8,Calm,Calm,-,N/A,,Mostly Cloudy,0,2012-11-24 14:19:00
6:38 AM,35.6,35.6,100,30.22,0.2,Calm,Calm,-,N/A,Fog,Fog,0,2012-11-24 14:38:00
6:53 AM,36.0,36.0,100,30.22,0.5,Calm,Calm,-,N/A,Fog,Fog,0,2012-11-24 14:53:00
7:02 AM,35.6,35.6,100,30.22,0.8,ENE,3.5,-,N/A,,Mostly Cloudy,60,2012-11-24 15:02:00
7:15 AM,35.6,35.6,100,30.22,1.0,Calm,Calm,-,N/A,,Scattered Clouds,0,2012-11-24 15:15:00
7:27 AM,35.6,35.6,100,30.22,2.0,East,3.5,-,N/A,,Partly Cloudy,90,2012-11-24 15:27:00
7:36 AM,35.6,35.6,100,30.23,5.0,ENE,5.8,-,N/A,,Clear,70,2012-11-24 15:36:00
7:53 AM,37.9,37.9,100,30.24,5.0,East,5.8,-,N/A,,Partly Cloudy,80,2012-11-24 15:53:00
8:53 AM,41.0,39.9,96,30.25,5.0,NE,4.6,-,N/A,,Clear,50,2012-11-24 16:53:00
9:38 AM,44.6,42.8,93,30.25,6.0,ENE,4.6,-,N/A,,Mostly Cloudy,60,2012-11-24 17:38:00
9:53 AM,43.0,41.0,93,30.26,6.0,Calm,Calm,-,N/A,,Overcast,0,2012-11-24 17:53:00
10:40 AM,46.4,44.6,93,30.26,6.0,North,4.6,-,N/A,,Mostly Cloudy,10,2012-11-24 18:40:00
10:53 AM,46.9,44.1,90,30.26,6.0,North,4.6,-,N/A,,Mostly Cloudy,360,2012-11-24 18:53:00
11:18 AM,46.4,42.8,87,30.26,6.0,NNW,4.6,-,0.00,Rain,Light Rain,340,2012-11-24 19:18:00
11:27 AM,46.4,42.8,87,30.25,1.8,Calm,Calm,-,0.00,Rain,Rain,0,2012-11-24 19:27:00
11:35 AM,46.4,42.8,87,30.25,1.0,ENE,4.6,-,0.01,Rain,Rain,70,2012-11-24 19:35:00
11:42 AM,46.4,42.8,87,30.25,2.0,ENE,3.5,-,0.02,Rain,Light Rain,70,2012-11-24 19:42:00
11:44 AM,46.4,42.8,87,30.25,3.0,ENE,4.6,-,0.02,Rain,Light Rain,70,2012-11-24 19:44:00
11:53 AM,46.0,43.0,89,30.25,6.0,ENE,3.5,-,0.02,,Overcast,60,2012-11-24 19:53:00
12:53 PM,46.9,42.1,83,30.25,6.0,Calm,Calm,-,N/A,,Haze,0,2012-11-24 20:53:00
1:53 PM,48.9,43.0,80,30.25,6.0,Calm,Calm,-,N/A,,Haze,0,2012-11-24 21:53:00
2:53 PM,48.9,43.0,80,30.24,5.0,Calm,Calm,-,N/A,,Haze,0,2012-11-24 22:53:00
3:13 PM,48.2,44.6,87,30.24,1.8,Calm,Calm,-,0.00,Rain,Light Rain,0,2012-11-24 23:13:00
3:28 PM,46.4,44.6,93,30.24,3.0,Variable,4.6,-,0.01,Rain,Light Rain,0,2012-11-24 23:28:00
3:41 PM,46.4,42.8,87,30.24,5.0,North,3.5,-,0.01,Rain,Light Rain,360,2012-11-24 23:41:00
3:53 PM,46.0,42.1,86,30.25,5.0,Calm,Calm,-,0.01,,Overcast,0,2012-11-24 23:53:00
4:53 PM,43.0,42.1,97,30.25,5.0,Calm,Calm,-,N/A,,Scattered Clouds,0,2012-11-25 00:53:00
5:00 PM,42.8,41.0,93,30.24,1.8,Calm,Calm,-,N/A,,Partly Cloudy,0,2012-11-25 01:00:00
5:05 PM,42.8,41.0,93,30.24,0.8,Calm,Calm,-,N/A,,Scattered Clouds,0,2012-11-25 01:05:00
5:09 PM,41.0,41.0,100,30.24,1.0,Calm,Calm,-,N/A,,Mist,0,2012-11-25 01:09:00
5:11 PM,41.0,41.0,100,30.24,1.5,Calm,Calm,-,N/A,,Partly Cloudy,0,2012-11-25 01:11:00
5:16 PM,41.0,41.0,100,30.24,1.0,Calm,Calm,-,N/A,,Mist,0,2012-11-25 01:16:00
5:24 PM,39.2,39.2,100,30.24,0.5,Calm,Calm,-,N/A,Fog,Fog,0,2012-11-25 01:24:00
5:39 PM,39.2,37.4,93,30.24,0.5,Calm,Calm,-,N/A,Fog,Fog,0,2012-11-25 01:39:00
5:47 PM,37.4,37.4,100,30.24,0.2,Calm,Calm,-,N/A,Fog,Fog,0,2012-11-25 01:47:00
5:53 PM,37.9,37.0,97,30.25,0.2,Calm,Calm,-,N/A,Fog,Fog,0,2012-11-25 01:53:00
6:08 PM,37.4,37.4,100,30.24,0.5,Calm,Calm,-,N/A,Fog,Fog,0,2012-11-25 02:08:00
6:15 PM,37.4,35.6,93,30.24,0.2,Calm,Calm,-,N/A,Fog,Fog,0,2012-11-25 02:15:00
6:53 PM,37.9,37.9,100,30.25,0.2,ENE,3.5,-,N/A,Fog,Fog,60,2012-11-25 02:53:00
7:17 PM,39.2,39.2,100,30.26,0.2,Calm,Calm,-,N/A,Fog,Fog,0,2012-11-25 03:17:00
7:53 PM,37.0,37.0,100,30.26,0.2,Calm,Calm,-,N/A,Fog,Fog,0,2012-11-25 03:53:00
8:03 PM,37.4,37.4,100,30.26,0.2,Calm,Calm,-,N/A,Fog,Fog,0,2012-11-25 04:03:00
8:53 PM,36.0,36.0,100,30.27,0.2,ENE,3.5,-,N/A,Fog,Fog,70,2012-11-25 04:53:00
9:37 PM,35.6,35.6,100,30.27,0.5,East,5.8,-,N/A,Fog,Fog,80,2012-11-25 05:37:00
9:53 PM,36.0,35.1,97,30.27,1.5,East,3.5,-,N/A,,Overcast,80,2012-11-25 05:53:00
10:01 PM,35.6,35.6,100,30.27,2.0,East,4.6,-,N/A,,Overcast,90,2012-11-25 06:01:00
10:19 PM,35.6,35.6,100,30.27,1.2,East,3.5,-,N/A,,Overcast,90,2012-11-25 06:19:00
10:22 PM,33.8,33.8,100,30.27,0.8,East,3.5,-,N/A,,Mist,90,2012-11-25 06:22:00
10:46 PM,33.8,33.8,100,30.28,0.2,Calm,Calm,-,N/A,Fog,Fog,0,2012-11-25 06:46:00
10:53 PM,33.1,33.1,100,30.29,0.5,East,3.5,-,N/A,Fog,Fog,80,2012-11-25 06:53:00
10:58 PM,33.8,33.8,100,30.28,1.5,East,4.6,-,N/A,,Mostly Cloudy,80,2012-11-25 06:58:00
11:00 PM,33.8,33.8,100,30.28,3.0,ENE,3.5,-,N/A,,Mostly Cloudy,70,2012-11-25 07:00:00
11:09 PM,33.8,33.8,100,30.28,6.0,East,3.5,-,N/A,,Scattered Clouds,80,2012-11-25 07:09:00
11:53 PM,33.1,33.1,100,30.29,7.0,East,3.5,-,N/A,,Clear,90,2012-11-25 07:53:00